K2MST Weather Reports


Display with metric or nautical units.
time (UTC)temp
F
wind
direction
speed
MPH
gust
MPH
rain 1hr
in
rain 24hr
in
rain mn
in
humidity
%
barometer
mb
20260507202017 56 338 11.0 18.0 0.00 0.00 0.00 34 1008.1
20260507201019 55 338 9.0 18.0 0.00 0.00 0.00 37 1008.1
20260507200017 55 338 10.0 19.0 0.00 0.00 0.00 36 1008.1
20260507195017 55 338 8.0 14.0 0.00 0.00 0.00 37 1008.2
20260507194017 56 338 6.0 14.0 0.00 0.00 0.00 37 1008.3
20260507193017 56 338 8.0 16.0 0.00 0.00 0.00 36 1008.3
20260507192017 55 338 8.0 13.0 0.00 0.00 0.00 38 1008.5
20260507191057 55 338 7.0 15.0 0.00 0.00 0.00 40 1008.7
20260507190017 56 293 7.0 12.0 0.00 0.00 0.00 40 1008.7
20260507185017 57 315 6.0 11.0 0.00 0.00 0.00 41 1008.8
20260507184017 56 293 8.0 20.0 0.00 0.00 0.00 39 1008.9
20260507183017 55 315 4.0 7.0 0.00 0.00 0.00 42 1009.0
20260507182017 55 338 5.0 11.0 0.00 0.00 0.00 43 1009.0
20260507181037 55 23 6.0 12.0 0.00 0.00 0.00 43 1009.1
20260507180037 55 338 7.0 14.0 0.00 0.01 0.00 43 1009.2
20260507175018 56 293 6.0 11.0 0.00 0.01 0.00 41 1009.2
20260507174019 55 293 5.0 10.0 0.00 0.01 0.00 42 1009.4
20260507173019 55 23 2.0 5.0 0.00 0.01 0.00 45 1009.6
20260507172018 55 248 5.0 10.0 0.00 0.01 0.00 45 1009.6
20260507171018 54 293 5.0 10.0 0.00 0.01 0.00 44 1009.5
20260507170019 53 293 5.0 12.0 0.00 0.01 0.00 47 1009.5
20260507165018 53 248 5.0 11.0 0.00 0.01 0.00 48 1009.6
20260507164019 53 23 6.0 12.0 0.00 0.01 0.00 50 1009.8
20260507163019 54 248 5.0 10.0 0.00 0.02 0.00 49 1010.0
20260507162018 53 248 4.0 10.0 0.00 0.02 0.00 49 1010.1
20260507161019 52 293 1.0 5.0 0.00 0.03 0.00 51 1010.3
20260507160019 52 338 5.0 12.0 0.00 0.04 0.00 51 1010.3
20260507155019 50 23 1.0 4.0 0.00 0.06 0.00 52 1010.4
20260507154018 49 338 5.0 10.0 0.00 0.08 0.00 53 1010.7
20260507153039 50 315 4.0 8.0 0.00 0.08 0.00 52 1010.7
20260507152018 49 23 5.0 11.0 0.00 0.09 0.00 53 1010.8
20260507151018 47 23 3.0 6.0 0.00 0.10 0.00 55 1010.8
20260507150018 47 338 5.0 9.0 0.00 0.10 0.00 55 1010.7
20260507145018 48 23 8.0 12.0 0.00 0.10 0.00 54 1010.8
20260507144018 49 338 7.0 13.0 0.00 0.11 0.00 52 1010.9
20260507143018 48 338 6.0 11.0 0.00 0.11 0.00 53 1010.7
20260507142058 48 315 3.0 7.0 0.00 0.12 0.00 56 1010.9
20260507141018 47 315 3.0 7.0 0.00 0.12 0.00 55 1011.0
20260507140018 47 338 6.0 12.0 0.00 0.13 0.00 55 1011.2
20260507135018 48 293 4.0 11.0 0.00 0.13 0.00 54 1011.0
20260507134058 48 338 4.0 11.0 0.00 0.15 0.00 54 1011.0
20260507133018 47 293 3.0 5.0 0.00 0.17 0.00 55 1011.0
20260507132018 47 315 3.0 6.0 0.00 0.19 0.00 54 1010.9
20260507131018 47 270 3.0 6.0 0.00 0.21 0.00 56 1010.9
20260507130018 46 23 5.0 10.0 0.00 0.24 0.00 57 1011.2
20260507125018 46 338 4.0 9.0 0.00 0.27 0.00 59 1011.2
20260507124018 46 338 4.0 9.0 0.00 0.29 0.00 63 1011.1
20260507123018 46 338 4.0 9.0 0.00 0.31 0.00 62 1011.0
20260507122018 46 293 4.0 9.0 0.00 0.33 0.00 62 1011.0
20260507121018 46 293 3.0 6.0 0.00 0.35 0.00 62 1011.0
20260507120018 46 248 1.0 5.0 0.00 0.36 0.00 64 1010.8
20260507115017 45 225 1.0 4.0 0.00 0.37 0.00 70 1010.9
20260507114018 44 0.0 2.0 0.00 0.37 0.00 74 1011.0
20260507113017 44 0.0 1.0 0.00 0.38 0.00 76 1010.9
20260507112018 42 0.0 1.0 0.00 0.39 0.00 78 1010.8
20260507111017 41 203 2.0 4.0 0.00 0.41 0.00 79 1010.7
20260507110018 40 203 2.0 4.0 0.00 0.44 0.00 80 1010.5
20260507105037 39 158 2.0 5.0 0.00 0.46 0.00 81 1010.4
20260507104018 39 180 2.0 4.0 0.00 0.48 0.00 81 1010.5
20260507103017 38 158 2.0 3.0 0.00 0.49 0.00 82 1010.5
20260507102038 37 158 1.0 2.0 0.00 0.50 0.00 82 1010.3
20260507101038 37 158 1.0 2.0 0.00 0.51 0.00 82 1010.3
20260507100037 37 158 1.0 2.0 0.00 0.51 0.00 81 1010.3
20260507095017 37 158 1.0 2.0 0.00 0.52 0.00 81 1010.3
20260507094017 38 0.0 1.0 0.00 0.53 0.00 80 1010.3
20260507093017 38 158 1.0 2.0 0.00 0.54 0.00 80 1010.1
20260507092017 39 158 1.0 2.0 0.00 0.55 0.00 79 1010.1
20260507091017 39 0.0 2.0 0.00 0.56 0.00 79 1010.4
20260507090017 39 0.0 0.0 0.00 0.57 0.00 79 1010.5
20260507085037 40 225 1.0 3.0 0.00 0.57 0.00 77 1010.4
20260507084017 41 0.0 2.0 0.00 0.58 0.00 76 1010.4
20260507083017 42 248 1.0 5.0 0.00 0.59 0.00 76 1010.5
20260507082017 42 293 1.0 4.0 0.00 0.60 0.00 77 1010.6
20260507081017 42 248 1.0 3.0 0.00 0.61 0.00 78 1010.5
20260507080019 42 0.0 2.0 0.00 0.61 0.00 76 1010.4
20260507075019 42 0.0 2.0 0.00 0.62 0.00 76 1010.3
20260507074019 43 0.0 3.0 0.00 0.62 0.00 75 1010.4
20260507073019 43 248 1.0 2.0 0.00 0.62 0.00 76 1010.2
20260507072019 43 0.0 2.0 0.00 0.62 0.00 76 1010.1
20260507071039 43 248 1.0 3.0 0.00 0.62 0.00 75 1010.2
20260507070039 44 248 2.0 3.0 0.00 0.62 0.00 73 1010.2
20260507065018 44 248 2.0 5.0 0.00 0.62 0.00 72 1010.3
20260507064018 44 293 2.0 5.0 0.00 0.62 0.00 71 1010.3
20260507063018 44 293 4.0 9.0 0.00 0.62 0.00 73 1010.4
20260507062020 44 293 4.0 6.0 0.00 0.62 0.00 74 1010.4
20260507061018 44 293 4.0 8.0 0.00 0.62 0.00 75 1010.5
20260507060039 44 293 4.0 10.0 0.00 0.63 0.00 77 1010.6
20260507055018 44 293 4.0 6.0 0.00 0.64 0.00 79 1010.5
20260507054018 44 293 4.0 7.0 0.00 0.64 0.00 79 1010.4
20260507053018 45 293 3.0 6.0 0.00 0.64 0.00 79 1010.5
20260507052018 45 270 3.0 7.0 0.00 0.64 0.00 81 1010.5
20260507051018 45 293 3.0 7.0 0.00 0.64 0.00 81 1010.5
20260507050018 45 293 4.0 10.0 0.00 0.64 0.00 82 1010.4
20260507045018 45 293 4.0 11.0 0.00 0.64 0.00 84 1010.2
20260507044038 45 293 4.0 8.0 0.00 0.64 0.00 84 1010.4
20260507043018 45 293 5.0 10.0 0.00 0.64 0.00 84 1010.2
20260507042038 45 293 4.0 8.0 0.00 0.64 0.00 85 1010.0
20260507041018 46 293 5.0 11.0 0.00 0.64 0.00 85 1009.9
20260507040018 46 315 3.0 9.0 0.00 0.64 0.64 86 1009.8
20260507035038 47 338 3.0 8.0 0.00 0.64 0.64 85 1009.7
20260507034018 47 315 1.0 3.0 0.00 0.65 0.64 86 1009.7
20260507033019 47 293 2.0 5.0 0.00 0.66 0.64 85 1009.6
20260507032018 47 315 1.0 4.0 0.00 0.67 0.64 86 1009.7
20260507031018 47 315 1.0 3.0 0.00 0.68 0.64 86 1009.6
20260507030018 47 248 1.0 2.0 0.00 0.69 0.64 85 1009.7
20260507025018 46 0.0 1.0 0.00 0.70 0.64 86 1009.6
20260507024038 46 0.0 2.0 0.00 0.71 0.64 86 1009.6
20260507023018 46 0.0 1.0 0.00 0.72 0.64 86 1009.7
20260507022058 46 248 1.0 2.0 0.00 0.74 0.64 86 1009.8
20260507021018 46 0.0 0.0 0.00 0.77 0.64 87 1009.6
20260507020038 46 0.0 1.0 0.00 0.78 0.64 87 1009.8
20260507015018 46 0.0 2.0 0.00 0.80 0.64 87 1009.8
20260507014018 46 0.0 2.0 0.00 0.80 0.64 87 1009.8
20260507013017 46 180 1.0 2.0 0.00 0.80 0.64 86 1009.7
20260507012018 46 0.0 0.0 0.00 0.81 0.64 86 1009.6
20260507010017 46 0.0 1.0 0.00 0.83 0.64 85 1009.5
20260507005038 46 225 1.0 2.0 0.00 0.83 0.64 85 1009.6
20260507004017 46 225 1.0 2.0 0.00 0.83 0.64 84 1009.5
20260507003017 47 0.0 2.0 0.00 0.84 0.64 83 1009.3
20260507002017 47 270 1.0 2.0 0.00 0.84 0.64 84 1009.3
20260507001017 47 315 1.0 2.0 0.00 0.84 0.64 83 1009.2
20260507000017 47 248 1.0 3.0 0.00 0.84 0.64 84 1008.9
20260506235037 47 248 2.0 5.0 0.00 0.84 0.64 85 1009.1
20260506234017 47 225 1.0 2.0 0.00 0.84 0.64 82 1008.6
20260506233017 48 293 3.0 7.0 0.00 0.84 0.64 82 1008.8
20260506232017 47 225 1.0 3.0 0.00 0.84 0.64 84 1008.2
20260506231037 47 225 1.0 3.0 0.00 0.84 0.64 83 1007.9
20260506230037 47 225 2.0 4.0 0.00 0.84 0.64 82 1008.0
20260506225018 48 315 1.0 4.0 0.00 0.84 0.64 82 1008.1
20260506224017 48 248 1.0 4.0 0.00 0.84 0.64 82 1008.2
20260506223017 48 293 3.0 5.0 0.00 0.84 0.64 82 1008.4
20260506222017 48 293 3.0 5.0 0.00 0.84 0.64 82 1008.6
20260506221017 48 293 3.0 9.0 0.00 0.84 0.64 81 1008.6
20260506220037 48 293 3.0 7.0 0.00 0.84 0.64 82 1008.4
20260506215017 48 293 3.0 5.0 0.00 0.84 0.64 82 1008.3
20260506214017 48 293 5.0 8.0 0.00 0.84 0.64 82 1008.1
20260506213037 48 293 3.0 6.0 0.00 0.84 0.64 83 1008.2
20260506212039 47 315 3.0 7.0 0.00 0.84 0.64 83 1008.0
20260506211019 47 293 4.0 10.0 0.00 0.88 0.64 84 1008.1
20260506210019 47 293 5.0 11.0 0.00 0.89 0.64 85 1008.0
20260506205019 47 315 4.0 10.0 0.00 0.89 0.64 85 1007.8
20260506204018 47 293 5.0 11.0 0.00 0.91 0.64 86 1007.7
20260506203019 47 315 4.0 10.0 0.00 0.91 0.64 86 1007.6